Current Weather Conditions: station ENDR

sailwx.info

See reports from other nearby stations

no recent reports received from weather station ID ENDR

Tides Pressure Air temp Water temp Dewpoint Dewpoint depression Visibility Wind speed Wind direction Waves Ship positions
date/time (UTC)wind fromknots sea level pressurealtimeterstation pressurevisibilityair tempwater tempwave heightnotes
2017-Nov-21 16:50 310 2 3.0
2017-Nov-21 16:20 280 1 2.0
2017-Nov-21 15:50 230 2 2.0
2017-Nov-21 15:10 280 1 5.4 2.0 Showers in the vicinity.
2017-Nov-21 14:50 210 0 2.0
2017-Nov-21 14:20 020 0 2.0
2017-Nov-21 13:50 320 1 3.0
2017-Nov-21 13:20 350 1 3.0
2017-Nov-21 12:50 320 0 2.0
2017-Nov-21 12:20 320 1 2.0
2017-Nov-21 11:50 190 0 1.0
2017-Nov-21 11:20 250 2 1.0
2017-Nov-21 10:50 270 11 1.0
2017-Nov-21 10:20 140 2 2.0
2017-Nov-21 09:50 130 4 2.0
2017-Nov-21 09:20 180 2 3.0
2017-Nov-21 08:50 210 5 2.0
2017-Nov-21 08:20 160 1 2.0
2017-Nov-21 07:50 120 1 2.0
2017-Nov-21 07:20 110 6 2.0
2017-Nov-21 06:50 050 6 2.0
2017-Nov-21 06:20 310 2 5.4 2.0
2017-Nov-21 05:50 320 5 2.0
2017-Nov-21 05:20 1.0
2017-Nov-21 04:50 1.0
2017-Nov-21 04:20 070 7 1.0
2017-Nov-21 03:50 020 15 2.0
2017-Nov-21 03:20 020 6 3.0
2017-Nov-21 02:50 050 9 3.0
2017-Nov-21 02:20 060 9 2.0
2017-Nov-21 01:50 050 12 2.0
2017-Nov-21 01:20 050 12 2.0
2017-Nov-21 00:50 030 13 2.0
2017-Nov-21 00:20 050 13 2.0
2017-Nov-20 23:50 040 18 2.0
2017-Nov-20 23:20 040 18 3.0
2017-Nov-20 22:50 020 19 3.0
2017-Nov-20 22:20 020 18 3.0
2017-Nov-20 21:50 020 13 3.0
2017-Nov-20 21:20 020 15 3.0
2017-Nov-20 20:50 020 17 3.0
2017-Nov-20 20:20 030 14 3.0
2017-Nov-20 19:50 050 12 3.0
2017-Nov-20 19:20 050 13 3.0
2017-Nov-20 18:50 050 11 3.0
2017-Nov-20 18:20 060 9 3.0
2017-Nov-20 17:50 070 8 3.0
2017-Nov-20 17:20 080 12 3.0
2017-Nov-20 16:50 080 13 3.0
2017-Nov-20 16:20 110 13 2.0
2017-Nov-20 15:50 090 9 2.0
2017-Nov-20 15:10 100 13 5.4 1.0 Snow showers.
2017-Nov-20 14:50 100 13 1.0
2017-Nov-20 14:20 130 9 2.0
2017-Nov-20 13:50 140 9 2.0
2017-Nov-20 13:20 160 13 2.0
2017-Nov-20 12:50 170 13 2.0
2017-Nov-20 12:10 170 12 5.4 2.0 Showers in the vicinity.
2017-Nov-20 11:50 160 7 2.0
2017-Nov-20 11:20 150 6 3.0
2017-Nov-20 10:50 140 7 3.0
2017-Nov-20 10:20 170 5 3.0
2017-Nov-20 09:50 100 1 4.0
2017-Nov-20 09:10 360 0 5.4 4.0 Showers in the vicinity.
2017-Nov-20 08:50 350 2 4.0
2017-Nov-20 08:20 020 6 4.0
2017-Nov-20 07:50 040 9 4.0
2017-Nov-20 07:20 080 6 4.0
2017-Nov-20 06:50 070 7 3.0
2017-Nov-20 06:10 5.4 4.0 Light rain showers.
2017-Nov-20 05:50 040 9 5.0
2017-Nov-20 05:20 050 5 4.0
2017-Nov-20 04:50 050 6 4.0
2017-Nov-20 04:20 060 7 4.0
2017-Nov-20 03:50 060 7 4.0
2017-Nov-20 03:20 4.0
2017-Nov-20 02:50 050 9 4.0
2017-Nov-20 02:20 060 9 4.0
2017-Nov-20 01:50 060 11 4.0
2017-Nov-20 01:20 050 13 4.0
2017-Nov-20 00:50 050 12 4.0
2017-Nov-20 00:20 050 8 4.0
2017-Nov-19 23:50 050 19 4.0
2017-Nov-19 23:20 050 13 4.0
2017-Nov-19 22:50 060 14 4.0
2017-Nov-19 22:20 050 13 4.0
2017-Nov-19 21:50 060 15 3.0
2017-Nov-19 21:20 040 20 4.0
2017-Nov-19 20:50 060 15 4.0
2017-Nov-19 20:20 060 11 4.0
2017-Nov-19 19:50 070 13 4.0
2017-Nov-19 19:20 080 15 4.0
2017-Nov-19 18:50 080 8 4.0
2017-Nov-19 18:20 110 9 3.0
2017-Nov-19 17:50 080 17 3.0
2017-Nov-19 17:20 090 20 2.0